GFSWCAN_850_thetae_000.txt.gz
Theta_e
300 300 299 299 300 300 300 300 300 298 297 297 299 302 305 305 303 303 306 302 305 309 309 309 310 313 314 313 317 317 320 325 327 330 329 330 332 333 333 334 335 336 336 334 334 336 336 332 331 333 337 332 331 331
300 300 300 300 299 300 300 300 300 299 298 297 298 301 304 303 305 303 307 305 303 307 309 305 305 307 311 311 312 313 317 324 320 325 327 330 330 331 332 333 331 334 335 336 335 336 334 331 332 331 331 332 332 334
300 300 300 300 300 300 300 300 300 300 300 298 298 300 303 303 305 303 305 305 307 308 309 308 311 310 310 307 307 313 315 317 318 316 321 325 333 332 330 330 331 330 329 331 333 334 331 328 329 330 331 332 332 332
300 300 300 300 300 299 300 299 300 300 301 299 298 300 303 303 304 303 305 305 306 307 309 309 306 307 306 308 308 310 312 314 315 317 321 324 326 322 330 330 331 329 329 330 331 331 328 329 328 327 328 329 330 330
299 300 301 300 300 299 299 299 299 299 301 300 299 300 303 304 303 303 303 304 304 307 310 309 307 308 308 308 310 311 312 312 315 318 321 325 322 324 325 325 328 328 329 330 329 325 326 327 323 325 327 329 329 332
299 299 300 300 299 300 301 300 299 300 301 300 299 300 302 304 303 305 307 306 305 306 309 311 308 309 310 310 310 310 311 311 313 314 316 316 317 318 322 325 325 325 323 324 325 321 321 321 322 324 324 326 327 329
299 299 299 299 299 300 299 300 299 299 301 300 299 301 302 303 303 305 307 308 304 305 309 310 310 310 310 311 310 311 310 310 311 313 313 313 315 315 317 318 319 318 321 322 319 317 317 319 319 319 320 323 325 326
300 300 299 300 299 300 299 299 301 299 300 299 300 301 303 303 302 304 305 302 302 306 308 311 310 311 309 312 315 312 311 310 310 311 312 313 313 314 315 316 316 315 314 314 314 315 315 316 316 316 318 320 322 325
301 301 300 300 300 300 300 301 301 299 300 299 300 302 303 304 305 305 302 302 303 307 309 309 312 313 307 310 309 312 314 315 312 312 313 314 315 317 316 315 316 315 315 316 316 316 317 317 317 317 317 318 320 322
301 301 301 301 301 301 301 301 301 300 299 300 302 304 305 305 303 303 306 307 306 307 307 309 307 310 307 310 310 310 310 315 319 318 315 315 316 315 315 316 315 316 317 317 318 319 319 319 319 319 319 317 320 321
301 301 301 301 301 301 301 301 301 300 300 301 303 304 304 302 305 306 306 307 307 308 307 307 308 310 308 312 313 311 313 314 316 319 318 318 318 318 319 319 320 321 321 320 319 319 320 320 320 320 320 318 319 320
300 301 301 301 301 301 300 301 301 300 302 303 303 304 303 305 305 306 307 307 307 309 307 309 310 310 311 310 313 313 314 314 314 315 318 318 321 321 321 320 319 318 317 317 316 316 317 321 323 322 320 320 322 326
299 300 301 301 301 300 301 301 300 301 301 301 303 305 305 303 306 305 307 307 308 307 308 310 311 311 310 311 313 315 315 314 313 315 315 315 322 320 319 317 316 315 315 315 316 316 318 320 321 321 322 326 327 326
300 300 299 300 300 300 301 301 300 301 302 303 303 305 305 304 305 307 307 308 308 308 310 311 311 312 312 313 313 314 314 313 314 314 316 316 320 318 317 317 317 316 316 318 319 320 322 321 322 325 326 324 323 323
300 300 299 299 301 300 301 300 300 300 301 302 303 306 306 305 305 306 306 307 308 309 310 310 311 311 312 312 313 313 314 314 315 315 316 316 316 314 314 314 316 316 317 320 323 323 324 324 324 324 323 322 322 320
300 300 301 300 301 301 300 300 300 300 300 302 303 305 305 306 306 306 307 308 307 309 310 311 312 312 312 313 313 314 313 313 316 315 312 311 312 313 312 314 316 316 318 320 322 323 323 323 323 323 322 322 322 320
300 300 300 300 300 300 300 301 301 301 301 302 305 305 305 306 306 306 307 308 309 310 312 312 312 311 311 313 313 313 314 315 312 311 312 313 314 314 314 314 317 318 319 320 321 322 322 322 322 322 322 322 321 321
301 300 300 300 300 301 301 301 302 302 302 304 305 305 305 306 307 307 307 308 309 310 311 311 311 313 314 314 315 316 312 310 310 314 312 314 314 314 315 317 317 317 318 320 321 321 321 321 321 320 320 320 319 319
301 300 300 300 301 302 302 303 303 304 304 305 304 305 306 306 306 307 308 308 309 310 310 309 312 312 314 314 312 311 311 313 315 313 312 312 314 313 311 312 311 313 317 318 318 317 318 318 318 318 318 318 318 318
301 301 301 302 303 304 304 304 304 305 306 306 306 306 306 307 307 306 306 307 308 309 310 311 312 313 312 312 312 311 312 315 316 315 312 312 313 314 315 314 315 315 315 315 315 316 316 315 315 315 315 316 315 316
303 302 303 302 303 304 305 306 305 305 306 306 307 308 308 308 308 308 308 309 309 310 311 311 311 312 312 313 314 315 317 318 318 315 315 313 312 313 313 313 313 313 314 314 314 313 313 313 314 314 314 314 315 314
302 302 302 302 302 303 304 304 306 304 304 304 305 307 309 310 311 311 310 310 311 311 311 311 311 311 313 315 318 318 317 317 315 315 313 314 315 314 314 312 314 314 313 313 313 313 313 313 312 312 312 313 312 313
301 301 301 301 301 300 303 303 303 303 305 306 308 309 310 311 310 309 308 307 308 310 312 314 313 314 315 318 318 315 315 315 316 316 315 315 315 315 314 314 314 313 313 313 313 312 312 311 311 311 311 311 311 311
302 302 302 301 301 302 302 302 303 307 307 310 311 310 312 312 309 311 316 315 315 314 314 315 316 316 316 315 316 315 316 317 316 316 316 315 314 314 314 313 312 311 310 311 311 311 311 311 310 311 311 311 311 310
306 306 306 308 308 312 315 316 316 316 316 315 314 314 314 314 316 316 316 315 316 315 315 316 315 314 314 314 314 316 316 315 314 313 313 313 313 313 313 312 311 310 308 308 309 309 310 310 310 310 310 310 310 309
309 311 312 315 316 317 318 316 317 317 316 316 316 316 316 316 315 315 315 316 316 315 315 315 315 315 314 314 313 313 313 313 313 313 313 312 312 312 312 312 311 311 310 309 308 308 308 308 308 308 309 309 308 308
317 317 317 315 314 317 318 318 318 318 318 317 317 315 315 315 315 314 313 312 312 312 313 313 314 313 313 313 313 313 313 312 312 311 311 310 310 311 311 311 311 311 311 310 309 309 308 308 307 307 306 307 307 307
315 316 318 316 315 314 315 314 315 315 315 314 314 314 314 314 314 311 311 311 311 311 311 310 310 310 310 310 310 310 310 310 311 311 311 310 310 310 311 310 310 309 309 309 309 309 308 308 308 308 307 307 306 306
316 315 314 313 313 313 313 312 312 312 313 312 313 313 312 312 312 312 312 312 313 313 312 312 312 312 312 312 312 312 312 312 312 312 312 312 312 312 311 310 310 310 310 310 309 308 308 308 308 308 308 308 307 307
313 313 313 314 314 315 313 313 312 312 312 312 312 313 313 312 312 312 312 313 313 313 313 313 313 312 312 312 312 311 311 311 310 309 309 308 308 308 308 308 309 309 310 310 310 310 309 309 308 308 308 307 308 307
314 313 313 314 314 314 314 314 314 313 313 313 313 313 313 313 313 313 314 314 314 314 313 313 312 311 311 311 311 310 309 308 307 306 305 303 302 302 302 303 303 303 304 305 306 307 308 308 308 308 307 307 307 306
315 315 315 315 314 314 315 314 315 315 315 314 313 312 313 313 314 315 314 314 314 313 312 311 311 310 310 309 308 308 306 304 302 301 301 301 301 301 301 302 303 303 304 304 304 304 304 305 305 306 306 307 307 307
316 315 315 315 315 315 315 315 315 316 316 315 314 314 314 313 314 314 314 313 312 311 310 310 309 309 308 307 305 304 302 301 300 299 300 299 299 299 299 300 300 301 301 302 304 305 305 306 307 307 307 307 307 307

GFSWCAN_850_thetae_003.txt.gz
Theta_e
300 301 301 300 300 300 300 301 301 301 300 298 297 298 300 304 304 303 310 308 308 310 311 311 311 314 317 315 321 319 321 324 327 329 330 330 330 330 331 333 336 338 336 333 333 335 336 334 334 335 340 335 334 333
299 300 301 300 300 300 300 300 301 301 301 300 299 298 300 303 304 304 310 309 308 309 311 310 308 309 310 314 315 317 322 327 326 329 331 332 333 332 334 335 335 337 339 340 339 339 338 335 336 334 333 333 333 332
300 300 301 301 300 300 300 300 300 301 301 301 300 298 302 303 304 304 307 309 309 311 312 310 313 312 311 310 310 315 317 322 324 321 326 330 334 335 334 333 334 334 333 333 336 336 334 331 331 332 332 331 331 331
299 300 300 300 300 300 300 300 300 300 300 301 300 299 301 303 304 304 308 308 309 310 312 313 308 310 309 309 311 311 315 316 318 321 325 328 328 328 331 331 334 332 332 332 333 334 332 332 329 328 330 331 332 332
299 299 300 299 301 300 300 299 300 300 300 301 301 299 301 304 304 304 307 308 308 310 314 313 310 310 310 311 311 311 313 315 316 319 323 326 325 326 327 329 330 329 330 331 334 329 330 330 326 327 328 330 331 332
299 299 299 299 300 301 300 300 301 300 300 301 301 299 301 303 303 307 309 308 308 309 311 314 312 311 312 312 311 313 314 314 315 317 318 319 320 322 324 326 325 326 327 326 328 323 323 323 324 324 324 325 328 330
301 300 299 300 299 300 299 300 301 301 300 301 301 299 301 303 304 307 309 309 306 306 312 313 313 312 312 313 313 312 312 312 313 315 315 316 317 317 318 320 321 322 322 322 323 321 320 321 322 321 321 322 323 327
301 300 300 300 300 300 300 300 300 301 300 301 300 300 302 303 303 305 306 304 303 308 309 314 314 313 312 315 316 314 314 313 313 314 315 316 315 316 317 317 317 317 317 316 316 316 317 318 319 320 320 320 321 324
301 300 301 302 301 301 301 300 300 301 300 301 299 301 303 305 307 308 306 302 305 309 312 312 313 315 311 313 314 314 315 317 315 316 315 315 316 317 318 318 317 318 317 318 318 319 319 319 319 320 321 320 319 319
303 301 301 301 302 301 301 301 301 301 300 300 301 304 307 307 306 305 308 309 309 309 309 312 311 313 311 313 313 314 313 317 320 319 316 317 318 316 316 318 318 319 318 319 320 321 322 322 321 321 320 321 321 320
302 302 302 302 301 302 301 301 301 301 300 302 305 307 307 303 306 307 308 309 310 310 310 310 311 313 310 314 316 313 316 316 316 319 320 319 319 321 319 320 321 321 321 321 320 319 319 318 318 319 320 321 321 321
302 301 301 302 301 302 301 301 302 301 303 304 305 306 306 307 307 308 309 309 310 311 310 311 311 311 313 312 314 315 315 316 315 318 318 318 327 324 323 322 320 319 318 317 317 317 317 317 316 316 320 323 322 322
300 301 302 302 302 302 301 301 301 302 302 305 305 307 307 307 307 307 309 310 311 310 311 312 313 312 312 312 314 316 316 316 315 317 316 317 324 322 320 320 318 318 318 317 317 316 316 317 316 316 319 322 323 324
300 301 301 301 302 301 301 301 301 302 302 305 305 309 307 307 307 309 309 310 310 311 312 311 312 314 313 314 315 316 316 315 316 316 317 321 317 317 316 317 318 317 316 316 317 317 317 317 318 319 321 323 326 326
300 300 300 301 301 301 301 301 300 302 303 304 305 309 308 307 307 308 308 309 309 311 311 311 312 312 314 314 315 315 316 316 317 319 320 316 315 315 315 316 316 318 317 318 318 318 319 319 322 325 325 325 325 326
300 300 301 300 300 301 301 300 301 303 304 304 305 307 307 307 307 307 308 308 309 310 310 311 313 313 313 314 313 315 316 317 319 316 315 314 314 314 316 317 318 318 319 320 320 322 322 323 323 324 325 325 325 324
301 301 301 301 301 301 300 302 303 303 304 304 306 306 307 308 308 307 308 308 309 311 313 313 314 313 313 313 314 315 318 318 314 313 312 313 312 314 316 317 317 317 317 321 322 322 322 322 323 323 323 323 323 322
302 301 301 300 300 301 302 303 304 304 304 305 307 306 306 308 308 308 308 308 309 311 312 314 313 314 315 314 316 317 315 311 311 312 314 317 316 312 311 312 314 315 314 317 320 321 322 321 321 321 323 322 321 321
302 300 300 301 302 304 304 304 305 305 306 306 306 306 307 307 308 308 308 308 310 311 312 312 314 314 314 315 314 314 313 313 313 313 313 314 317 316 316 315 314 316 317 317 318 318 318 318 318 319 319 319 319 319
300 300 301 301 303 304 305 305 305 306 307 307 307 307 307 308 308 308 308 309 309 309 311 312 313 313 314 312 312 313 314 315 316 314 313 314 315 316 316 316 316 315 315 315 315 315 315 315 316 316 316 316 317 318
302 303 303 303 304 305 306 306 306 306 307 307 308 308 309 308 308 308 308 308 309 310 311 311 311 312 313 314 314 316 317 317 319 317 316 316 314 314 315 314 314 315 314 314 314 314 314 314 314 314 313 315 316 316
303 303 303 303 304 304 305 307 307 307 307 307 307 309 310 310 310 310 311 311 311 310 311 311 313 314 315 316 317 318 319 318 317 317 314 314 315 316 315 315 314 314 313 314 313 314 313 313 313 312 313 314 313 314
303 302 302 302 302 301 303 304 305 305 306 306 307 308 308 309 310 308 309 308 308 309 310 311 313 314 315 316 319 318 317 318 317 317 317 316 316 315 316 315 314 313 313 313 313 312 313 313 312 312 312 312 312 312
302 302 302 301 301 302 302 304 303 306 308 307 307 304 304 305 306 305 308 311 314 316 318 318 318 318 317 316 316 318 317 318 316 315 315 315 314 314 315 314 314 313 312 310 310 311 312 312 312 312 312 312 312 312
306 306 305 306 305 307 308 310 308 307 310 310 314 317 317 310 314 316 315 314 315 316 317 317 317 315 315 315 316 317 316 315 314 314 315 314 313 313 313 313 313 313 312 311 310 310 310 310 311 311 311 311 311 311
312 314 314 317 318 319 318 317 316 317 317 317 317 318 317 316 317 317 316 315 314 315 315 315 314 314 313 314 314 314 314 314 313 313 312 312 311 312 312 312 312 312 313 313 312 311 311 310 310 310 310 310 310 309
318 318 318 318 318 319 318 317 317 317 317 318 317 315 315 315 315 314 312 313 313 312 312 313 313 313 313 313 312 312 312 312 312 313 313 313 312 312 312 312 312 312 311 311 311 311 311 311 311 310 310 310 310 309
317 318 316 314 314 314 316 316 316 316 316 315 315 315 314 314 315 314 314 314 314 314 314 314 314 314 314 314 314 314 314 314 314 313 312 312 312 313 313 313 312 311 311 312 312 311 311 311 311 311 311 311 311 311
315 315 315 315 314 314 314 314 314 314 313 314 315 316 314 314 314 314 314 314 314 314 314 314 314 313 313 313 313 313 312 312 312 311 310 310 309 309 307 307 307 308 308 309 310 310 311 311 311 310 310 310 309 309
315 315 315 315 316 316 314 314 315 314 314 314 314 314 313 314 314 314 314 315 315 314 314 314 313 313 312 312 312 311 311 310 308 307 307 306 304 303 303 303 303 303 304 304 305 305 306 306 308 309 310 310 310 310
315 315 315 315 315 315 315 315 314 313 314 314 313 314 314 314 315 314 315 315 315 314 313 312 312 312 311 311 310 309 308 307 305 304 303 302 302 302 302 302 301 303 303 303 303 304 305 305 306 306 306 306 307 307
317 316 316 316 316 315 315 316 316 316 315 314 314 314 315 315 315 315 315 314 314 313 312 311 311 310 309 308 307 306 305 305 303 303 301 300 301 300 300 300 300 301 301 301 301 301 302 303 305 306 306 307 307 308
317 317 317 317 316 317 317 317 317 317 317 316 315 315 315 315 316 315 315 314 312 311 311 310 308 307 305 304 304 304 304 303 302 300 298 298 297 298 299 299 300 300 300 300 300 300 300 301 302 302 302 302 303 303

GFSWCAN_850_thetae_006.txt.gz
Theta_e
299 300 301 300 301 301 301 300 301 301 301 301 300 299 297 299 303 304 312 312 310 311 311 313 312 313 316 321 322 322 324 324 327 329 329 329 330 331 334 337 336 341 339 336 339 338 338 336 337 338 343 336 336 335
299 299 300 299 301 301 300 301 301 300 301 300 301 300 298 300 303 304 310 311 311 311 311 311 311 312 311 313 316 318 321 329 328 332 330 330 330 331 337 331 334 336 339 343 343 343 337 337 337 335 336 335 334 334
300 300 300 301 301 301 301 301 301 301 301 301 301 301 298 300 303 304 305 310 311 312 313 313 313 315 311 312 311 314 322 322 327 325 328 332 335 335 337 338 338 337 335 338 337 338 334 334 332 332 332 332 331 331
300 300 300 300 301 301 300 301 301 300 301 301 301 301 299 300 303 304 306 309 310 311 313 314 312 311 311 310 312 312 316 317 318 320 326 329 332 331 333 336 336 337 334 335 338 334 335 331 330 331 331 331 331 331
301 300 300 300 300 300 301 300 300 300 300 300 301 302 299 300 304 304 307 309 309 310 315 315 313 312 311 313 312 313 314 316 317 318 322 326 326 328 329 329 330 330 334 336 335 329 331 328 327 328 328 328 330 331
302 301 300 299 299 299 300 301 301 301 301 300 301 302 299 300 304 306 311 310 310 310 312 316 315 315 313 313 313 315 315 316 316 318 320 321 323 324 326 326 325 328 328 328 326 324 324 324 325 326 324 325 325 326
302 302 301 300 300 300 300 301 300 301 302 300 301 302 299 301 304 307 309 310 308 306 313 314 314 314 313 314 314 313 314 314 315 316 317 318 319 319 320 320 321 321 322 321 321 321 320 320 321 321 322 323 323 323
301 301 302 301 300 300 300 300 300 301 302 300 301 300 300 302 303 305 307 306 303 308 311 315 315 315 313 315 316 315 315 314 314 317 317 317 318 318 318 318 318 318 319 318 317 317 318 319 320 320 320 321 321 322
300 300 302 300 300 300 301 301 301 301 302 301 301 300 302 305 308 308 308 306 303 309 313 313 315 317 314 316 318 316 317 317 316 316 315 316 317 317 319 319 318 318 319 318 319 320 320 320 321 322 322 322 322 322
300 301 302 301 302 301 301 301 301 302 301 300 301 305 307 308 307 306 308 310 309 310 310 312 313 315 312 314 314 317 316 318 320 320 316 316 317 317 317 317 319 320 320 320 321 322 322 322 321 320 321 321 322 322
301 303 302 302 302 302 302 302 302 301 301 302 305 308 308 305 308 308 310 311 311 312 311 310 312 314 312 316 317 315 317 317 317 319 319 319 323 325 323 323 323 323 322 321 320 319 319 319 319 319 318 318 319 322
303 303 302 302 302 302 302 301 302 301 303 304 306 307 306 308 308 310 310 311 311 313 311 312 312 314 315 314 316 316 316 316 317 319 320 320 329 324 324 323 322 321 321 320 319 319 319 318 318 317 317 317 316 320
301 301 302 301 302 302 302 302 302 303 303 304 305 307 309 309 308 309 311 311 312 311 312 313 314 312 314 313 315 317 316 316 316 317 318 326 321 321 320 321 321 321 320 320 319 318 318 318 318 317 317 318 317 319
301 302 302 302 301 302 302 302 301 303 304 305 306 309 309 309 308 310 310 311 312 313 313 313 313 315 315 314 317 316 317 317 318 318 323 320 318 318 318 318 319 320 319 319 319 319 319 319 319 318 318 319 320 321
301 301 301 302 302 301 301 301 302 302 305 306 307 309 309 308 309 310 311 311 311 312 312 313 313 314 315 316 316 317 316 317 318 323 320 317 317 317 318 319 319 320 320 320 320 321 320 319 321 320 320 325 325 326
300 302 302 301 301 301 301 301 301 303 306 306 306 309 309 309 309 308 309 310 310 311 312 313 314 315 315 315 315 316 316 320 320 318 317 316 317 317 317 319 320 320 320 320 321 322 321 322 322 322 325 325 326 326
301 302 301 301 301 301 301 303 304 305 306 306 307 307 309 310 310 310 309 310 311 311 313 314 315 314 314 314 314 316 320 318 316 317 317 318 318 313 314 314 317 316 317 318 319 320 319 321 321 321 321 321 321 322
302 301 301 300 301 301 303 304 306 306 306 306 308 309 309 309 309 310 310 310 311 313 314 316 315 314 315 315 319 317 317 317 317 317 317 317 317 316 313 314 316 316 316 318 319 319 319 321 320 319 322 323 323 322
302 301 301 302 302 304 305 305 305 306 307 307 308 308 308 308 309 310 309 310 311 312 313 314 315 315 316 317 316 316 316 316 317 317 316 317 318 318 316 316 317 318 316 316 316 317 317 318 317 318 318 319 320 320
300 301 302 302 303 306 306 306 306 308 309 309 308 308 308 309 309 309 309 311 310 311 312 313 314 315 314 315 314 315 316 317 316 317 317 316 316 316 316 317 316 316 315 316 315 315 316 316 316 316 316 316 315 318
302 302 303 303 305 307 307 308 308 308 308 309 310 310 310 309 309 309 309 309 310 310 311 311 313 313 313 314 315 316 317 318 318 319 319 318 317 315 316 316 316 316 316 315 315 314 315 315 314 315 316 315 316 317
304 303 304 304 305 306 306 308 309 308 308 309 309 310 311 311 310 312 312 312 312 312 311 311 311 313 315 316 317 318 317 316 316 317 315 315 317 317 317 316 316 315 315 314 315 315 314 314 315 314 313 314 315 314
303 303 303 303 303 303 304 305 308 307 308 308 309 310 311 311 311 310 311 310 311 310 310 312 313 314 315 317 316 315 316 318 318 317 317 317 316 316 316 316 316 316 315 314 312 311 312 313 314 314 314 313 313 313
301 301 301 301 302 302 302 305 305 306 307 307 308 307 307 308 307 306 306 307 314 316 318 318 318 317 316 316 316 317 319 315 318 318 317 317 316 315 315 316 315 315 315 314 313 312 311 312 312 312 313 313 313 313
304 303 301 300 300 301 307 307 306 304 305 306 304 307 307 306 310 312 314 315 315 314 315 316 316 316 317 316 317 318 317 316 315 314 315 315 314 313 313 313 314 313 314 315 314 314 313 313 312 312 312 311 312 312
307 313 311 312 306 311 315 316 313 315 317 317 318 317 314 316 316 316 317 316 316 315 315 316 316 316 316 315 315 315 315 313 313 314 314 315 315 314 314 314 314 314 314 313 313 312 312 312 313 313 313 312 311 311
319 318 317 319 320 319 320 320 319 319 318 317 317 317 315 315 316 316 315 315 315 314 314 314 314 314 314 314 314 315 315 315 315 315 315 314 313 313 313 313 313 312 311 312 313 313 313 313 313 313 312 312 312 312
320 317 316 316 315 315 316 316 316 317 317 315 316 317 316 316 316 315 316 315 315 315 315 315 315 315 315 315 315 314 314 313 314 313 312 312 312 311 310 308 307 306 306 307 306 307 307 308 309 310 311 312 312 312
316 316 315 316 316 316 315 316 315 315 315 315 315 316 315 314 315 315 316 316 315 315 315 315 315 314 314 314 313 313 312 312 311 310 309 309 308 307 306 305 306 305 305 305 306 306 306 306 306 306 306 307 308 309
316 315 316 316 317 317 315 315 315 314 314 315 315 315 315 316 316 316 315 316 316 315 314 314 313 313 312 312 311 310 310 309 308 308 307 306 305 304 304 304 304 303 302 303 304 304 304 304 304 305 307 308 308 308
317 317 317 316 316 316 316 316 315 315 315 315 315 316 316 316 315 315 315 315 314 314 313 312 312 311 310 308 307 307 307 306 307 307 305 304 303 302 301 301 301 301 302 302 302 302 302 302 302 303 304 306 306 305
318 318 318 319 318 318 317 317 317 316 316 315 316 317 317 317 316 315 315 315 314 313 313 312 310 308 307 307 306 306 305 305 305 304 303 301 300 300 300 300 300 301 301 301 301 301 300 300 300 300 302 303 302 302
319 318 319 318 318 319 318 319 319 319 318 317 317 316 316 317 317 316 315 314 313 312 312 311 308 307 306 305 305 305 304 303 303 302 301 300 300 299 300 301 301 301 301 300 300 300 299 299 299 299 300 300 299 299

GFSWCAN_850_thetae_009.txt.gz
Theta_e
300 300 300 300 300 301 301 301 301 300 300 300 301 301 300 298 299 302 308 311 310 313 311 310 312 312 311 312 318 319 322 328 328 332 329 329 329 329 332 334 333 339 339 335 336 337 339 336 338 342 338 337 336 335
300 300 300 300 300 300 300 301 300 301 300 300 301 301 302 300 299 303 304 310 310 311 312 311 310 311 313 312 311 313 317 324 328 330 331 332 330 330 335 336 335 342 339 344 345 343 336 334 332 333 331 332 332 332
301 300 300 300 300 301 301 301 301 300 300 301 301 301 301 300 299 303 303 310 310 311 312 313 314 314 313 312 312 312 318 319 319 319 325 330 337 334 338 336 338 336 334 337 339 336 335 332 330 330 331 332 331 331
301 302 301 300 300 300 301 301 300 300 301 301 301 300 301 300 299 302 303 308 310 310 313 314 314 315 312 310 311 312 313 316 317 318 320 328 332 329 334 335 335 334 335 335 336 334 333 328 329 331 330 329 330 331
301 301 301 301 300 300 300 300 301 300 300 300 301 300 302 299 299 302 303 308 309 310 312 313 314 313 312 310 313 313 314 315 317 319 321 322 327 327 327 329 332 332 333 337 332 331 331 329 327 326 325 325 325 326
301 301 302 302 301 300 299 300 300 301 300 301 301 301 302 299 301 306 311 310 310 310 311 315 315 312 313 314 312 314 314 316 316 317 320 320 319 322 327 326 326 331 330 327 328 325 327 326 324 323 323 323 323 323
301 302 301 301 301 300 300 300 301 301 301 302 301 301 302 299 302 306 309 310 309 306 311 315 315 314 314 314 314 313 314 315 315 316 318 318 319 319 320 322 320 322 320 319 321 321 320 320 320 320 321 321 321 322
301 302 302 302 302 300 300 300 300 301 300 302 301 302 300 300 302 305 307 306 304 307 310 314 317 316 313 314 316 315 314 314 315 316 318 318 319 318 318 322 319 319 318 318 320 320 320 320 320 321 322 322 322 321
301 301 300 301 301 300 301 301 301 300 301 302 301 300 301 304 308 309 309 307 303 309 312 315 315 319 314 316 317 315 316 319 316 316 316 317 318 319 319 319 319 320 321 321 321 322 322 322 321 321 320 320 320 321
301 300 300 301 300 301 301 301 301 301 302 302 300 305 307 309 307 307 308 310 309 310 310 312 313 315 313 315 315 318 316 319 318 318 316 316 325 324 325 323 323 322 321 320 320 319 319 318 318 319 319 319 318 318
301 301 302 302 302 301 301 301 301 302 301 301 304 306 308 307 306 309 310 313 312 313 311 310 311 315 313 317 319 316 318 319 319 319 319 323 329 323 322 322 322 321 321 320 320 319 319 319 319 319 318 318 317 317
303 303 303 302 302 301 301 302 302 302 303 304 305 307 306 307 309 310 312 312 313 313 312 311 311 314 316 314 318 317 318 318 319 320 321 328 323 320 320 319 320 320 320 321 320 320 320 320 319 318 318 319 318 318
302 302 302 301 301 301 302 302 302 303 304 305 306 308 309 309 308 310 311 312 313 313 311 313 313 312 314 313 317 319 317 317 317 318 324 322 319 318 318 319 319 320 320 321 320 319 319 319 319 320 320 319 319 318
302 302 301 301 302 302 302 302 302 303 304 305 306 304 310 311 309 310 312 314 314 313 313 314 313 316 315 315 318 317 318 318 319 320 322 319 318 317 317 319 320 319 320 320 319 320 321 322 321 320 320 319 321 320
302 301 301 301 301 302 302 302 302 303 304 306 308 307 310 309 310 311 312 312 313 313 313 313 314 315 316 316 317 317 317 317 322 321 319 318 317 317 317 320 320 320 320 320 321 321 322 321 321 321 321 321 323 322
301 301 301 301 301 301 301 302 303 303 306 307 308 309 310 311 311 310 311 312 312 312 312 313 317 317 317 317 316 317 316 321 319 319 318 318 318 315 316 317 318 316 318 319 319 319 320 320 320 321 321 322 320 321
302 302 301 301 301 301 302 304 305 307 306 307 308 309 309 311 311 311 312 311 312 312 315 315 315 314 316 316 315 320 319 318 317 318 318 318 316 314 313 314 316 317 316 317 319 319 320 320 319 319 320 321 321 321
302 301 301 301 301 302 304 304 307 307 307 307 309 309 309 310 311 311 311 312 313 314 314 316 315 317 315 315 320 318 317 317 317 318 318 317 316 316 316 316 316 317 317 315 315 317 317 318 318 318 318 319 320 321
301 301 301 301 303 304 306 306 306 307 308 308 309 309 308 310 310 310 310 311 311 312 314 315 316 317 319 317 317 316 316 316 316 318 317 316 316 316 316 316 316 317 317 317 316 316 316 316 316 316 317 317 316 317
301 302 302 303 303 305 307 307 307 308 309 309 310 310 310 310 309 309 310 310 311 311 313 315 315 314 315 315 315 316 315 316 317 318 317 317 318 317 316 317 317 316 317 315 315 315 314 315 316 316 316 315 315 317
303 303 303 304 305 306 307 308 309 309 309 310 309 310 311 310 310 309 309 310 311 310 312 312 314 314 313 314 316 317 317 316 317 317 316 316 316 316 317 317 317 316 316 315 315 315 315 315 315 315 314 314 315 316
304 304 303 304 305 306 306 307 307 308 309 309 309 311 312 312 313 312 313 313 313 312 313 313 312 314 315 314 315 316 316 315 315 316 316 316 317 318 316 316 316 316 316 316 314 313 312 312 313 313 314 314 313 313
303 303 303 303 304 303 303 305 308 308 308 309 310 311 311 311 310 309 311 311 312 312 313 312 311 312 313 315 316 315 315 316 317 316 316 317 317 317 316 317 317 316 316 315 314 313 312 312 312 312 312 312 313 313
303 303 302 302 303 303 303 306 306 306 307 308 308 308 308 309 307 307 308 308 314 316 317 317 315 315 315 315 316 317 318 317 316 317 317 317 316 314 313 314 314 313 314 314 315 314 314 313 313 313 312 312 312 312
301 302 301 301 301 302 306 308 307 307 307 306 305 305 306 306 309 312 315 314 314 314 315 315 315 316 316 317 317 318 316 316 317 314 314 314 315 315 315 315 315 313 313 314 314 313 313 313 313 313 313 313 313 313
304 304 302 305 306 305 307 310 308 307 307 308 308 312 310 311 316 316 317 315 315 315 315 315 317 318 318 317 316 315 315 315 315 315 316 315 314 313 313 312 310 309 308 308 308 308 308 309 309 310 311 312 312 313
314 319 313 316 314 313 317 319 318 319 319 319 319 319 318 317 317 317 316 316 317 315 315 316 317 316 315 316 315 315 314 314 314 313 312 311 311 310 308 306 306 306 306 306 306 305 306 306 306 306 306 306 307 307
320 318 320 318 318 317 319 318 318 317 316 316 316 316 316 316 317 316 316 315 315 316 315 315 315 315 314 313 312 312 312 311 311 310 309 309 308 307 306 305 305 305 305 305 304 304 304 304 304 304 304 305 306 307
317 317 317 318 316 316 316 317 316 315 315 315 317 317 317 316 317 316 316 316 315 314 314 313 312 312 312 311 310 309 309 308 308 308 308 308 307 305 304 303 303 303 302 302 302 303 303 303 303 303 303 305 307 307
316 316 317 317 318 318 316 315 315 315 315 316 316 316 317 316 316 316 315 314 314 314 313 312 311 310 309 308 307 307 307 307 306 307 306 305 304 303 301 301 301 300 301 302 302 302 302 301 301 301 301 302 304 304
319 318 319 319 318 318 317 316 316 316 316 316 316 316 316 316 315 315 315 314 313 314 313 312 310 308 308 307 307 306 306 305 305 305 304 303 302 301 300 300 300 301 302 302 301 301 301 301 300 300 299 300 301 301
320 320 319 319 320 319 319 318 318 317 317 317 317 317 317 316 316 315 314 313 313 312 312 311 308 308 307 306 305 305 305 304 303 303 302 301 300 300 300 300 301 302 302 301 301 301 301 300 300 299 299 299 300 299
321 320 320 320 318 320 319 320 318 318 319 317 317 317 318 317 317 316 314 312 311 311 310 309 308 307 306 305 304 304 303 303 302 301 300 300 300 300 299 299 299 300 300 300 300 300 299 299 298 298 298 298 298 297

GFSWCAN_850_thetae_012.txt.gz
Theta_e
301 300 300 300 300 300 300 300 300 300 302 300 300 301 301 301 301 299 301 306 308 310 310 309 310 312 312 312 311 314 317 321 327 327 326 323 325 326 333 335 336 338 340 336 333 334 336 331 332 337 334 331 333 333
302 301 301 301 301 301 300 300 301 300 300 300 301 301 301 302 302 299 300 304 307 308 310 310 309 309 310 311 312 311 313 319 322 323 326 325 330 331 333 337 335 337 336 340 337 336 332 331 330 331 331 331 330 331
302 301 302 302 302 300 301 301 301 301 301 300 300 301 301 301 302 299 301 303 308 309 309 311 313 313 311 312 311 311 314 313 317 317 319 325 330 329 334 335 336 334 332 336 336 334 334 331 331 330 330 329 329 330
301 302 301 302 302 301 301 300 301 301 300 300 300 300 300 301 301 299 300 302 305 309 309 312 313 313 313 312 311 310 311 313 315 316 315 320 326 324 329 330 331 333 331 333 334 333 331 329 328 326 326 329 330 328
302 301 301 301 302 302 301 300 300 301 301 300 300 301 300 301 300 299 300 302 307 308 309 310 312 313 313 311 310 312 313 314 314 314 313 315 321 322 321 325 328 331 330 332 332 330 330 328 323 323 324 323 323 323
301 301 301 302 302 302 301 300 300 300 301 301 301 301 301 302 299 303 308 309 308 306 308 308 314 313 312 313 312 314 313 314 316 315 314 318 318 320 321 321 322 331 329 329 328 329 326 321 320 322 322 321 322 322
301 301 301 302 302 302 300 300 300 300 301 301 302 302 301 301 299 304 308 310 308 308 307 310 311 314 313 314 314 313 314 315 315 315 314 315 316 317 314 319 324 327 325 326 325 320 320 321 321 321 322 322 322 321
302 301 301 302 302 302 301 300 300 300 301 300 302 301 301 299 300 302 307 307 306 305 307 309 312 313 313 313 315 314 314 313 314 315 315 313 316 313 313 315 321 320 321 322 322 321 321 321 320 320 320 320 320 319
303 301 301 300 301 302 300 300 301 300 301 302 302 301 301 303 307 309 310 309 305 307 309 311 312 314 313 313 315 315 315 313 315 311 310 315 319 324 321 319 319 320 319 319 320 319 319 318 318 319 319 319 319 318
301 301 301 300 301 301 301 301 300 301 301 302 300 305 306 308 308 307 307 307 308 309 308 308 311 309 312 314 312 315 315 314 314 313 319 321 321 320 319 320 320 321 320 319 319 319 319 318 318 318 318 318 318 318
302 301 300 301 302 301 301 300 301 301 301 301 304 306 307 308 306 308 309 310 311 310 311 310 310 309 314 313 314 315 313 314 316 315 314 321 322 318 318 319 318 319 319 319 319 319 319 319 318 319 318 318 318 318
303 302 301 301 301 301 301 301 301 302 303 304 305 306 307 307 308 307 307 309 310 310 311 309 310 314 314 313 314 315 314 314 317 316 321 324 320 318 317 319 319 319 319 320 319 319 319 319 319 319 319 320 320 320
302 302 301 301 301 301 301 301 302 303 303 305 305 307 308 308 301 308 310 309 309 310 311 311 310 312 313 313 313 313 315 314 314 321 322 319 317 317 316 319 319 319 319 319 319 320 321 322 321 321 320 319 318 319
302 301 301 301 301 302 302 302 303 303 305 305 306 305 305 307 308 306 310 312 313 313 314 312 313 313 314 312 313 315 315 314 319 321 321 316 317 317 318 320 320 319 319 319 319 319 319 320 320 321 320 320 321 322
301 301 301 301 302 302 302 302 302 304 304 306 307 307 309 310 310 311 312 312 312 313 313 313 313 314 311 312 313 313 315 321 321 320 316 317 317 315 318 317 316 317 318 318 318 319 319 319 319 320 322 321 320 321
301 301 301 301 302 301 301 303 303 304 306 307 307 308 308 310 310 311 312 312 312 312 313 313 313 312 314 312 314 316 321 320 318 315 318 317 316 315 314 315 315 316 316 316 317 318 319 319 319 320 321 320 321 322
301 301 301 301 301 301 302 304 305 306 306 306 307 309 309 310 310 311 312 313 312 314 312 313 314 315 312 312 317 317 317 316 316 317 317 317 315 315 315 315 316 316 317 316 315 316 316 318 318 318 319 319 319 320
301 301 301 301 302 303 304 305 306 307 307 307 308 308 309 310 310 311 310 309 311 312 314 314 314 313 315 317 316 316 316 316 317 317 317 317 315 316 316 315 316 316 316 317 316 316 316 316 316 316 317 317 316 318
301 301 302 303 303 304 306 306 306 307 308 309 309 310 309 309 310 311 310 311 311 312 313 314 313 313 314 314 315 315 315 315 316 316 317 316 317 317 316 316 316 317 316 317 315 315 314 314 314 316 316 315 315 315
302 302 302 304 305 305 307 307 307 308 309 309 309 310 310 310 309 310 310 310 311 311 311 311 313 315 315 314 315 316 316 316 316 316 315 314 317 317 316 316 317 316 316 316 315 315 315 315 315 316 316 315 314 315
304 303 303 304 305 306 306 308 308 308 309 309 309 310 310 311 311 311 311 311 311 310 311 313 314 314 314 314 316 316 316 316 316 316 316 315 315 315 315 316 316 316 316 316 316 316 314 312 313 313 313 313 313 314
304 304 304 304 305 305 305 307 306 308 308 308 308 310 311 311 311 309 311 313 313 313 313 312 311 311 312 313 313 315 315 315 315 315 316 316 316 317 316 316 316 316 316 315 316 315 312 312 312 312 313 312 312 312
303 303 304 303 303 303 303 305 308 307 307 308 309 310 309 310 308 308 310 310 310 313 314 314 311 311 312 315 315 315 315 316 316 315 316 317 317 317 317 315 314 316 315 314 315 314 313 312 312 312 312 312 312 312
303 303 303 302 303 302 304 306 306 306 307 307 306 306 307 308 308 308 310 310 314 315 316 316 314 315 315 315 315 316 317 317 317 317 317 317 316 315 314 313 312 310 311 312 313 313 313 313 313 313 313 313 313 313
303 302 302 301 301 302 305 307 306 306 306 307 307 307 307 307 310 313 313 313 314 315 315 315 315 315 316 316 316 316 316 316 315 316 314 314 314 313 313 311 309 309 308 307 307 307 307 307 307 307 308 308 308 308
302 304 302 303 303 305 307 308 307 307 307 308 308 310 308 310 315 315 313 314 314 314 315 315 316 316 316 317 316 313 313 314 314 312 310 310 309 308 306 306 306 306 306 305 306 305 305 305 304 305 305 305 305 305
309 312 308 308 308 308 310 312 310 309 312 312 312 313 314 316 317 316 316 316 316 315 315 316 315 315 314 311 310 310 311 310 309 309 309 308 307 306 305 305 304 303 303 304 303 303 303 303 303 303 303 303 305 307
314 318 318 314 313 315 316 316 315 316 315 317 317 317 316 317 316 316 316 315 315 316 316 315 312 309 309 308 308 308 307 307 307 307 307 307 306 305 304 304 303 303 302 300 301 303 303 302 302 301 301 303 304 304
319 317 316 317 316 316 315 314 314 315 315 315 313 314 316 316 316 316 315 313 312 312 311 311 309 309 309 308 308 307 306 306 306 305 305 305 304 303 303 302 301 300 299 301 302 302 301 301 301 300 300 300 301 302
317 317 318 318 317 316 316 315 315 315 316 316 316 316 316 316 314 314 314 313 313 313 311 310 310 309 308 308 307 306 305 305 304 304 303 302 302 301 300 300 300 300 302 302 302 301 301 301 300 300 299 299 299 300
319 316 317 318 320 319 316 316 315 315 316 317 316 316 315 315 314 314 313 313 313 312 312 310 308 307 307 306 306 305 304 303 303 303 301 301 301 300 299 299 299 301 301 301 301 301 300 300 300 299 299 299 299 299
320 320 319 319 317 318 317 317 316 317 317 316 316 316 316 315 313 311 311 311 311 311 309 308 307 306 305 305 305 303 302 302 302 301 301 301 300 300 300 301 301 300 300 299 299 300 299 299 298 298 298 297 297 297
321 321 320 319 319 319 319 318 318 318 318 318 317 317 318 317 316 312 309 309 308 308 307 306 306 305 305 303 301 301 301 301 300 300 300 300 300 300 301 300 300 299 298 298 297 296 296 295 295 294 294 294 294 295

GFSWCAN_850_thetae_015.txt.gz
Theta_e
303 302 302 302 302 302 301 301 301 301 301 300 301 300 301 301 302 302 301 303 305 308 308 308 309 310 311 311 313 312 313 320 322 326 328 327 329 327 336 335 336 335 338 337 333 332 336 330 331 334 331 328 330 331
301 301 301 301 302 303 302 301 301 301 300 300 301 301 301 301 302 302 301 304 305 304 307 309 309 309 309 309 310 310 310 318 320 320 324 323 331 329 333 338 333 334 335 337 333 331 329 332 330 329 329 329 329 329
302 302 302 302 302 302 302 301 301 301 301 302 301 300 300 302 301 302 302 300 304 307 307 308 309 312 310 307 308 311 311 313 317 317 318 324 329 327 332 334 335 333 331 333 334 331 330 328 329 327 325 323 326 328
300 300 302 301 301 301 302 302 301 301 301 301 300 301 300 300 300 302 301 299 301 305 307 309 312 313 313 311 312 311 311 310 313 316 317 321 326 321 326 328 332 331 332 333 333 332 329 326 324 323 324 326 326 328
302 303 302 301 301 301 301 302 301 301 300 301 300 300 301 301 301 302 299 299 301 304 308 308 308 313 313 313 311 311 311 312 314 315 315 317 320 324 322 323 328 329 329 330 333 329 327 326 322 323 322 322 323 327
301 303 301 301 301 302 302 301 300 300 300 300 300 301 301 301 302 299 306 305 307 306 305 307 309 312 313 312 311 313 312 313 315 314 313 314 316 322 323 325 323 327 329 328 329 324 321 320 321 322 322 322 321 321
302 301 301 301 302 302 302 301 300 300 300 300 301 301 302 301 301 301 306 308 307 307 306 309 309 313 312 312 314 313 313 314 314 313 312 311 314 315 316 318 315 321 327 328 324 323 319 320 319 319 319 319 319 320
304 302 301 301 302 301 302 301 300 300 300 301 300 302 301 301 299 300 305 307 307 305 305 307 310 310 313 313 313 314 313 313 313 312 313 312 320 318 319 318 317 320 320 320 320 320 319 318 319 319 320 320 320 320
302 302 301 301 300 302 301 300 301 300 300 300 302 301 300 302 304 308 309 309 307 305 308 309 312 312 313 312 313 314 314 311 313 309 314 319 320 322 319 317 318 318 317 318 318 319 319 319 318 319 318 317 316 317
301 301 301 300 301 301 301 301 300 301 301 302 300 304 305 307 308 307 306 305 305 305 305 307 310 310 311 313 311 313 313 312 312 311 321 320 321 318 318 319 319 319 319 319 320 319 318 317 317 317 316 317 317 317
302 301 300 301 301 300 300 300 301 301 301 303 305 306 307 307 307 306 307 308 309 309 309 309 309 307 313 313 314 313 312 312 315 313 322 324 322 317 317 319 319 320 319 318 318 317 317 317 317 317 316 317 318 318
302 301 301 301 301 301 300 300 301 302 303 304 305 306 307 307 307 306 305 307 309 310 309 308 309 311 313 313 313 313 313 313 316 317 321 325 319 317 317 319 319 319 318 317 317 317 317 318 319 319 319 319 319 319
301 301 300 300 301 301 301 301 303 303 304 305 305 306 307 306 300 308 309 308 307 308 310 310 309 311 313 312 312 312 315 315 316 320 322 320 316 317 319 319 319 319 319 318 319 319 319 320 320 320 319 319 321 321
301 301 301 301 302 302 302 302 303 304 304 305 305 304 304 306 307 306 310 310 312 311 311 313 313 311 312 311 312 315 314 316 320 322 320 316 316 317 319 317 318 318 318 318 319 319 319 319 320 321 321 321 321 321
300 301 301 302 302 302 302 302 303 304 304 305 306 309 310 309 309 310 311 312 311 312 312 313 313 312 310 312 312 312 318 320 320 320 315 316 316 315 315 315 316 316 316 316 317 318 319 319 319 321 320 321 321 321
301 301 302 301 301 302 302 303 305 306 307 307 307 309 309 309 310 311 311 311 313 313 313 313 310 310 312 310 315 319 320 320 317 314 317 317 315 314 315 316 316 316 316 316 315 316 316 317 317 318 320 319 320 322
301 301 301 301 301 302 303 305 306 307 306 306 308 308 308 309 309 310 310 311 312 313 311 311 314 315 311 313 317 316 317 316 315 316 317 317 316 315 316 316 316 316 316 316 316 316 315 315 316 316 316 317 318 319
301 301 301 302 303 303 305 306 306 307 307 308 307 309 309 309 310 310 310 311 312 312 313 313 313 313 315 317 316 315 315 317 317 317 317 317 315 316 316 316 316 316 316 316 315 315 314 314 314 315 315 315 314 315
302 302 303 304 304 305 306 306 306 307 308 308 309 310 310 309 310 310 310 310 311 311 312 313 311 312 313 313 313 314 314 315 316 316 316 315 317 317 317 316 316 317 316 316 316 316 315 314 315 315 315 316 315 314
302 302 303 304 306 305 307 307 308 308 308 309 308 309 310 310 310 310 310 310 310 310 310 310 311 314 314 314 315 315 316 316 316 316 315 314 315 316 315 315 316 315 315 316 316 316 316 315 312 314 313 314 315 314
303 304 303 304 306 305 306 307 308 307 308 308 307 310 310 311 310 310 310 311 312 308 310 313 313 313 314 314 315 314 315 315 315 315 315 315 316 316 316 316 318 317 316 316 315 315 316 312 312 312 312 313 312 312
303 304 304 304 304 304 305 305 305 308 307 307 308 309 309 309 308 307 308 310 311 312 312 312 311 310 311 312 314 314 315 315 314 315 315 316 316 316 317 316 315 314 315 314 313 314 315 312 312 312 311 311 311 311
303 303 303 303 303 303 304 305 307 306 305 306 308 307 306 308 308 309 308 310 311 314 314 315 315 313 314 314 315 315 315 315 315 316 316 317 316 317 314 312 312 313 313 312 312 312 312 312 312 312 312 312 313 313
304 304 303 302 302 303 304 305 306 306 307 306 305 305 307 307 309 310 310 311 313 315 315 315 315 315 315 315 316 316 316 316 317 317 314 315 316 314 309 308 309 308 307 307 307 307 307 307 307 307 307 308 308 308
305 304 303 302 302 303 306 306 306 306 307 306 308 309 308 308 311 313 313 314 314 314 315 315 315 315 316 315 314 314 314 315 315 314 313 313 313 313 309 307 307 306 306 305 305 304 304 304 304 304 304 304 304 304
303 305 302 305 304 305 307 308 307 307 308 309 310 310 309 311 315 315 313 315 314 314 315 316 315 311 314 314 310 310 309 309 309 309 308 308 308 308 307 306 305 304 303 302 302 301 302 303 303 302 302 302 303 304
307 309 306 307 306 306 308 310 309 308 310 310 309 312 313 316 316 315 315 315 314 315 315 313 310 308 308 308 308 307 307 307 307 307 307 307 306 305 304 303 302 301 301 300 299 302 302 302 302 301 301 304 303 303
310 312 310 309 308 310 312 312 312 312 314 314 313 315 317 316 314 315 315 315 315 315 315 310 308 308 308 308 307 307 306 305 305 305 305 305 304 303 303 302 301 300 300 300 301 302 301 301 300 300 300 300 300 300
315 317 315 312 313 313 313 312 312 314 315 315 312 313 315 316 315 312 313 312 312 312 309 308 307 307 307 307 307 307 306 305 304 303 303 302 302 301 300 300 300 299 300 301 302 302 301 301 301 300 300 299 300 300
317 317 317 317 316 315 316 314 315 315 315 315 315 316 315 314 313 313 311 310 310 309 308 307 307 307 307 306 306 305 304 303 302 302 301 301 300 300 300 299 300 300 300 300 300 300 300 300 300 300 299 299 299 299
319 317 317 318 318 317 315 315 315 315 316 316 315 314 312 311 311 310 309 308 308 308 308 308 307 306 305 305 304 303 302 301 300 301 300 300 300 300 300 301 301 300 299 299 300 300 299 299 298 298 297 296 297 297
317 317 318 315 316 317 317 316 316 316 316 316 316 316 314 311 310 311 309 310 310 306 306 305 305 304 304 302 301 300 299 299 299 299 299 299 299 300 299 299 299 298 298 298 297 297 296 295 294 293 292 291 291 290
319 318 319 319 318 318 318 318 318 317 317 316 314 312 309 307 308 308 308 309 305 304 304 303 303 302 301 300 299 299 298 298 298 298 297 298 297 297 297 297 296 295 294 294 293 293 292 291 291 290 290 290 289 289

GFSWCAN_850_thetae_021.txt.gz
Theta_e
299 299 299 299 300 301 301 302 301 302 302 302 301 301 301 301 302 302 302 302 302 302 301 302 303 303 307 308 309 309 312 317 322 330 332 330 332 334 336 336 336 339 341 342 340 338 335 331 333 338 335 333 333 333
300 300 300 300 300 301 301 302 302 302 302 302 302 302 301 301 302 302 302 302 302 301 301 301 302 304 304 305 306 309 312 310 316 322 325 327 335 334 338 338 335 338 338 340 337 336 331 328 332 330 330 332 334 338
300 300 300 301 300 301 302 302 301 301 301 302 301 302 302 302 302 302 302 302 302 302 302 302 301 302 304 303 304 307 308 310 315 312 320 324 332 332 340 339 337 335 333 337 337 334 329 327 326 325 325 326 327 328
300 301 301 300 302 302 302 301 301 301 302 301 301 302 302 302 301 301 301 301 301 301 302 303 306 305 305 306 308 308 308 314 314 311 317 323 329 324 334 333 337 328 334 334 334 331 328 325 326 326 325 324 323 324
301 302 302 302 301 300 301 301 302 302 302 301 301 301 300 301 302 302 301 301 301 302 302 301 302 310 309 310 308 309 308 309 310 312 317 323 323 328 327 329 325 322 329 335 336 331 330 327 325 323 322 323 323 322
302 303 302 300 301 301 301 301 301 300 301 300 301 301 301 302 302 301 301 305 303 301 300 308 306 308 311 310 310 309 309 308 309 313 318 314 317 326 330 329 320 319 322 322 330 329 325 324 321 319 318 318 318 319
301 302 301 301 301 301 301 301 301 301 300 300 300 301 300 302 302 301 302 302 303 301 303 308 309 310 310 310 310 309 309 310 311 313 317 316 320 323 323 324 319 320 322 322 321 321 320 319 317 317 318 317 317 316
302 301 301 301 300 301 301 300 300 300 300 300 300 300 300 301 301 300 301 304 303 304 304 308 310 313 310 312 313 311 311 311 311 312 318 321 320 321 322 319 318 319 319 318 318 318 317 318 318 316 316 315 314 315
301 300 300 300 301 301 300 300 300 300 300 300 301 301 302 303 304 306 307 306 305 304 305 307 312 316 312 310 311 311 312 314 311 322 321 321 319 321 319 317 318 318 319 318 320 319 318 316 316 315 315 315 315 317
300 301 301 301 300 300 300 300 301 301 301 302 304 304 305 306 307 307 306 304 303 304 303 306 308 312 310 313 314 314 313 314 324 321 320 321 319 317 317 318 318 318 318 318 319 320 321 321 320 318 319 318 319 320
300 300 300 300 301 300 300 301 302 302 303 304 304 305 305 306 306 306 307 308 308 309 307 308 309 312 310 315 316 314 315 314 321 321 323 322 317 317 318 319 319 320 319 318 319 320 320 319 321 321 320 320 321 321
301 300 301 301 300 300 301 302 303 304 304 304 304 306 307 307 306 307 309 308 310 313 310 312 313 310 310 310 315 315 316 318 324 321 323 322 319 317 318 319 318 319 320 320 320 320 320 320 321 321 321 321 320 319
301 301 301 301 301 302 303 303 303 304 304 305 305 305 304 306 310 311 314 314 314 311 310 311 312 312 313 311 315 317 318 321 320 321 320 320 318 318 317 317 317 317 317 318 318 319 320 320 320 320 321 321 320 320
301 301 302 302 302 302 302 303 305 306 305 305 306 308 309 310 311 312 312 312 311 311 312 311 311 314 313 315 316 318 319 321 321 321 319 318 317 316 315 315 316 316 316 317 317 317 317 318 319 319 319 320 320 320
301 301 302 303 303 303 304 305 306 306 306 307 306 306 307 306 309 310 311 311 311 310 311 311 312 313 314 316 319 319 320 320 320 320 318 317 314 314 316 316 316 316 315 315 315 315 315 315 315 316 316 318 320 320
302 303 303 304 304 305 306 306 306 306 306 306 308 309 308 310 311 310 311 311 309 311 312 312 314 315 315 318 319 319 319 320 319 318 316 315 314 315 315 316 316 316 316 315 315 315 315 315 315 314 313 313 315 318
302 302 303 303 304 305 306 307 307 307 307 309 310 308 308 308 309 309 309 309 310 312 315 315 316 315 315 317 319 318 317 317 316 316 315 315 315 316 315 316 316 316 315 315 315 314 314 314 314 314 314 314 313 313
302 302 302 303 304 305 307 307 307 308 309 308 309 308 308 308 308 309 308 309 310 312 314 315 314 317 318 318 317 316 315 315 316 316 316 315 316 316 316 315 315 316 315 315 315 315 315 315 314 313 313 315 314 314
301 302 303 304 304 305 306 307 307 307 308 307 307 308 309 309 309 308 309 311 311 311 312 314 315 315 316 315 315 315 315 316 316 315 315 315 316 315 315 315 315 315 315 315 315 315 315 315 315 313 312 312 314 315
301 303 303 304 304 305 306 306 307 307 308 307 306 307 309 309 308 308 310 312 312 313 313 314 314 313 314 314 314 315 315 315 315 316 315 315 316 316 317 317 316 316 315 315 314 313 314 315 314 312 311 311 312 312
303 304 305 305 304 304 304 305 305 306 306 306 306 307 308 308 308 309 309 310 312 311 312 311 311 312 312 312 312 314 315 315 315 315 315 316 316 316 314 314 314 314 312 311 311 311 311 311 311 311 311 312 312 312
305 306 305 304 304 304 305 305 306 306 306 306 307 306 307 308 309 310 310 311 311 312 313 314 313 312 314 315 315 315 315 315 315 315 315 315 315 314 313 311 309 309 308 307 306 306 306 306 307 307 307 307 308 308
307 306 305 305 304 305 305 305 306 306 308 307 307 309 309 310 310 311 312 312 313 314 315 315 314 315 314 314 314 315 315 315 315 315 315 315 315 315 308 307 306 306 305 304 304 304 305 305 304 304 304 303 304 304
307 306 305 304 304 304 305 306 306 307 307 307 309 310 311 309 312 313 314 313 314 314 314 314 313 310 308 308 307 307 308 308 308 309 310 313 311 307 306 306 305 304 303 303 302 302 301 301 302 303 303 304 304 304
307 306 306 304 305 307 308 309 308 309 310 310 311 313 312 310 315 316 316 315 314 313 312 313 307 307 306 307 307 306 307 306 305 306 306 308 307 306 305 303 303 302 301 301 301 301 302 302 302 302 302 303 304 305
306 307 306 307 307 309 310 312 311 310 309 311 312 311 311 314 316 316 316 314 313 312 308 306 306 307 306 306 305 305 305 304 304 305 305 305 304 304 303 303 302 302 300 300 300 301 301 302 301 301 301 301 302 303
312 312 309 308 306 306 309 309 310 309 312 314 313 314 315 316 316 315 314 313 308 307 306 306 306 305 305 304 304 304 303 303 302 303 303 303 302 301 301 301 301 300 299 299 299 301 301 301 301 300 301 301 301 302
311 310 313 310 307 308 312 313 313 314 315 313 313 317 316 315 311 308 307 308 305 305 305 305 305 304 304 303 303 302 301 301 301 301 301 301 301 300 300 300 300 299 299 300 300 300 301 300 300 300 300 300 301 301
312 313 312 313 311 312 312 314 313 312 313 314 315 313 310 306 305 304 304 304 305 306 305 305 304 304 303 301 300 299 299 299 299 299 299 299 299 298 298 298 299 299 300 300 299 299 299 299 298 297 297 297 297 297
317 316 315 316 316 317 314 313 311 309 308 309 308 308 308 308 307 305 305 306 306 306 305 303 302 301 299 298 298 297 297 297 296 296 296 297 297 297 297 297 297 297 298 298 298 297 296 295 295 294 294 293 293 292
317 317 316 316 318 315 314 313 312 311 310 309 309 309 310 309 309 309 308 307 305 304 302 302 300 299 297 296 295 295 295 294 294 294 294 294 294 294 294 294 294 294 294 293 293 293 293 293 292 292 291 291 290 290
318 317 318 319 317 315 315 316 316 316 313 311 311 310 309 309 310 309 308 306 303 301 300 299 297 296 295 294 293 293 293 292 292 292 291 291 291 291 291 290 290 290 290 290 290 290 290 290 290 290 289 289 289 289
317 318 318 318 318 318 317 317 317 315 312 311 312 311 310 310 310 309 308 305 300 299 298 297 295 294 293 293 292 291 291 291 290 290 290 289 289 288 288 288 288 288 288 288 288 288 288 288 288 288 288 289 289 289

GFSWCAN_850_thetae_024.txt.gz
Theta_e
300 300 301 301 300 300 301 301 302 301 302 302 302 302 301 302 301 302 302 302 302 302 302 304 304 304 305 306 310 311 311 317 320 327 329 329 331 330 330 332 337 337 337 336 337 339 340 334 336 338 341 340 338 338
300 301 301 301 301 301 301 301 302 302 301 301 302 302 302 302 302 302 302 302 303 302 303 304 304 304 304 304 305 307 310 313 312 321 325 326 333 335 334 336 337 336 335 335 339 339 335 332 335 334 336 338 342 340
301 301 302 302 301 303 303 302 301 301 301 301 302 301 302 303 302 302 302 303 302 302 302 304 305 305 304 304 305 307 309 309 314 314 316 322 331 333 337 337 337 339 337 338 338 334 334 331 329 330 331 333 335 340
301 302 303 302 301 300 301 301 301 301 302 302 302 301 302 302 302 302 302 302 303 302 304 305 304 306 307 307 304 305 308 310 312 313 317 320 328 328 337 337 339 333 336 338 336 333 329 329 330 328 327 329 331 334
302 302 301 301 301 301 301 301 302 301 301 301 301 301 301 301 302 302 302 302 302 303 305 304 304 309 309 305 309 307 306 307 309 312 318 320 321 326 331 331 327 323 329 338 336 331 331 330 327 327 328 328 328 328
301 301 301 301 300 301 301 301 301 301 301 301 300 301 302 301 302 302 303 304 302 303 303 306 308 311 312 311 310 309 309 309 309 313 317 318 316 322 333 329 320 322 326 327 334 331 327 325 321 321 322 322 323 323
301 301 301 301 300 301 301 301 300 300 300 300 300 301 300 300 301 303 304 302 301 302 300 307 311 313 312 312 311 311 310 311 311 313 317 318 321 323 323 324 320 323 326 329 330 327 323 321 319 320 319 319 319 318
300 301 301 301 300 300 300 300 300 300 300 300 300 300 300 301 301 301 304 303 302 302 302 307 309 315 312 312 312 311 312 311 312 314 317 321 321 321 322 319 320 321 321 320 321 321 319 318 317 319 320 319 319 320
301 301 301 301 300 300 300 300 301 301 301 301 301 302 303 304 304 305 306 305 304 302 301 304 312 316 313 313 311 311 312 315 314 321 320 320 320 321 321 319 320 321 320 319 318 318 320 319 318 320 321 321 320 320
300 300 300 300 300 300 300 301 302 303 303 304 305 307 307 307 306 306 306 305 304 304 303 307 311 315 314 314 313 313 314 317 321 321 318 318 320 318 318 319 320 319 320 319 317 317 316 316 321 322 321 322 322 322
301 301 301 301 301 301 302 303 303 304 305 306 306 307 307 306 307 308 309 310 309 307 304 308 313 315 313 317 318 315 317 318 321 322 322 318 318 320 315 317 319 321 321 321 321 320 321 322 322 322 323 323 323 324
301 302 303 303 303 303 303 303 304 304 304 304 305 305 306 309 310 310 312 311 313 314 312 314 314 314 314 314 318 318 319 320 321 321 322 321 318 318 319 318 320 321 322 322 322 322 323 323 323 324 324 324 323 323
301 302 302 302 303 304 303 304 304 306 305 306 307 308 309 311 314 314 314 314 315 314 313 314 317 316 316 316 319 320 320 321 322 320 320 320 318 318 318 319 320 320 320 321 321 322 322 322 323 324 324 324 324 324
302 303 303 304 304 305 306 306 306 306 306 307 307 308 308 311 312 313 314 314 313 313 313 314 317 317 316 318 319 320 322 322 321 319 321 320 317 316 318 319 320 320 320 319 319 318 319 320 321 322 324 324 324 324
302 303 303 303 304 305 306 307 307 306 307 307 305 307 311 310 311 313 314 314 314 314 314 315 315 316 318 318 319 321 321 321 320 320 319 317 317 319 319 319 319 319 319 318 318 318 318 318 317 318 319 321 323 323
302 302 302 303 304 306 307 308 308 308 308 310 310 312 311 313 313 313 313 314 314 314 316 316 317 317 320 319 320 320 320 321 320 318 317 317 319 320 320 320 319 320 319 319 318 318 317 318 318 318 318 318 318 319
301 303 302 303 303 305 307 308 309 310 311 311 312 311 311 312 313 313 313 313 313 316 318 318 319 319 318 318 319 316 319 319 318 318 318 319 320 320 320 319 319 319 319 319 319 318 319 319 318 317 317 319 318 318
301 302 303 304 304 304 307 307 310 310 311 310 311 311 311 312 312 312 312 313 313 316 316 318 317 318 318 318 318 316 316 317 316 319 318 320 320 319 319 319 319 320 319 320 320 320 319 319 317 316 316 318 318 317
300 301 303 304 304 305 309 309 309 310 310 310 309 310 311 311 312 312 313 314 314 314 315 315 317 317 318 316 317 317 317 318 318 318 318 317 318 317 316 316 318 317 316 319 319 317 317 319 318 316 315 314 314 315
301 303 305 305 303 308 309 309 309 309 310 309 309 310 311 311 312 313 313 313 313 313 314 315 316 316 316 315 315 317 318 318 318 318 317 318 318 319 319 319 319 318 317 315 314 313 315 315 315 314 314 314 314 315
306 307 307 304 304 306 307 308 310 309 308 309 309 310 311 313 314 314 314 314 314 314 315 314 314 313 314 314 315 316 317 317 317 317 318 318 315 317 315 313 313 313 312 312 311 311 311 311 310 311 311 312 311 313
308 308 306 305 307 307 308 307 308 308 310 310 310 311 313 314 314 312 313 314 314 314 314 314 315 315 315 315 315 316 315 315 315 316 317 316 316 316 315 312 311 311 309 308 308 308 308 308 307 308 308 308 309 309
308 307 306 307 308 308 308 309 310 311 313 312 312 313 313 313 313 313 313 314 314 314 315 313 309 308 309 308 309 310 312 311 311 313 315 316 315 312 310 309 308 308 308 307 307 306 306 305 306 305 305 306 306 306
308 308 308 309 310 310 310 312 311 312 313 313 313 314 315 315 315 316 316 315 315 314 314 314 313 311 310 310 309 308 308 309 309 309 309 310 310 309 309 308 307 306 305 305 305 304 304 304 303 304 304 304 304 305
309 308 310 308 311 313 314 315 314 315 316 316 316 317 317 316 317 316 315 314 314 313 311 310 310 309 309 309 308 308 307 307 307 308 307 307 308 308 308 307 306 305 304 303 303 303 303 303 303 303 303 303 303 304
310 312 312 314 315 315 315 318 317 315 315 316 317 316 316 317 317 317 315 313 312 309 308 308 308 308 307 306 305 305 304 304 304 305 305 305 304 304 304 304 304 304 302 301 301 302 302 303 303 303 302 302 302 302
316 318 315 311 311 312 315 314 314 314 317 318 318 318 318 317 316 311 310 307 306 305 305 306 306 306 305 304 303 302 301 302 302 303 303 303 302 302 302 301 301 301 300 301 301 301 302 302 302 302 301 301 301 301
316 316 319 316 314 313 316 317 317 318 318 317 317 317 314 313 310 307 305 303 305 305 305 305 305 304 304 303 302 300 299 299 300 300 300 301 300 300 299 299 299 299 299 300 300 300 300 300 301 300 300 299 299 299
319 319 317 319 316 316 317 317 316 315 315 317 317 313 308 308 307 306 305 305 304 304 304 303 302 302 301 300 299 299 298 297 297 297 298 298 298 297 297 297 297 298 298 298 299 298 298 297 296 296 296 296 296 296
320 319 320 319 319 318 316 315 313 312 312 311 309 309 309 309 309 308 307 305 304 303 302 301 300 300 299 298 297 297 296 295 295 294 294 295 294 294 294 294 294 294 294 294 295 295 294 294 294 295 294 294 293 293
321 321 320 319 320 317 315 313 313 312 310 310 310 309 309 308 309 307 307 305 303 303 302 301 300 298 297 296 295 295 294 294 293 292 291 291 292 292 291 292 292 292 292 292 292 292 292 292 292 292 292 291 291 291
320 320 320 319 320 317 315 316 314 311 311 312 311 310 309 311 311 310 307 304 303 302 300 299 298 296 295 295 294 293 292 293 292 290 289 288 288 288 289 290 290 290 290 290 290 290 290 290 290 290 290 290 290 290
320 317 317 318 319 319 319 318 317 312 311 312 313 313 312 311 310 309 305 301 300 300 299 298 296 295 294 293 293 292 292 292 290 290 288 287 286 287 288 288 288 289 289 289 289 290 290 289 289 289 289 289 289 289

GFSWCAN_850_thetae_027.txt.gz
Theta_e
301 301 301 302 303 302 302 301 301 301 302 302 302 303 303 302 302 302 304 303 302 302 303 305 305 305 306 307 309 311 313 314 318 321 324 323 324 325 326 329 330 330 333 332 334 336 341 338 338 338 342 344 344 342
301 301 302 303 302 302 302 303 303 303 302 302 302 302 302 302 302 302 303 304 303 303 303 305 305 305 307 307 307 308 310 310 313 320 320 322 329 331 332 331 330 331 331 331 333 336 341 338 341 339 338 340 343 342
301 302 302 301 301 302 302 301 301 301 301 302 302 302 301 302 303 303 302 303 303 302 304 305 307 307 307 306 306 307 308 309 311 314 317 320 327 330 336 336 339 331 331 337 342 340 338 335 335 335 337 339 341 342
302 301 301 301 301 301 301 301 301 301 301 302 301 301 301 302 302 302 303 303 303 303 305 305 306 307 308 307 307 306 308 313 311 310 315 320 324 327 332 333 332 328 328 341 342 338 336 334 332 333 335 338 341 343
301 301 301 301 301 301 302 301 301 301 301 301 301 301 302 302 302 302 303 303 303 303 306 306 306 310 310 307 308 306 306 309 311 310 316 321 320 323 327 332 328 325 328 340 342 336 337 334 332 332 332 333 335 336
301 301 301 301 301 301 300 300 300 300 300 300 300 300 302 301 301 303 305 304 303 304 304 307 308 311 313 311 309 310 308 309 309 313 314 318 318 319 325 331 323 324 328 332 337 334 330 327 325 326 326 326 327 328
301 301 301 300 300 300 300 300 301 301 301 300 300 300 300 300 301 304 305 305 303 302 302 306 310 312 314 314 311 312 312 312 312 313 314 320 319 319 325 324 322 326 331 332 330 328 327 325 322 323 322 321 321 322
300 300 300 301 301 300 300 301 302 302 301 301 301 301 301 301 301 303 306 306 302 302 302 306 309 311 314 314 314 313 314 314 314 313 317 320 319 321 321 320 322 323 322 323 326 327 323 322 320 317 320 321 320 321
301 301 301 301 301 301 302 303 303 304 304 303 304 304 304 305 306 307 306 305 304 303 302 302 307 317 312 314 314 314 314 316 315 316 319 319 319 320 321 322 321 320 320 318 319 319 318 317 319 322 321 318 323 322
301 302 303 303 303 303 303 303 304 305 305 306 307 308 309 309 307 307 306 305 302 303 301 306 309 317 315 314 315 315 315 319 320 320 317 316 318 316 321 320 319 318 316 316 315 316 318 322 322 319 319 320 323 324
302 302 302 303 304 304 304 304 304 305 307 308 309 309 309 307 309 309 311 309 306 307 304 307 313 317 314 317 315 315 318 320 322 319 319 314 317 317 320 320 317 317 317 317 317 316 315 316 320 323 323 323 324 326
302 302 303 303 304 304 305 305 305 307 308 306 306 306 308 311 311 312 314 314 314 315 315 316 317 316 316 316 319 318 320 321 322 320 319 314 317 317 319 321 321 322 322 322 321 321 322 322 323 321 325 324 324 325
302 303 303 303 303 305 306 306 307 306 307 308 309 310 309 312 316 314 313 315 316 315 315 316 319 319 318 317 319 321 321 322 320 320 318 315 317 318 319 320 321 322 323 323 323 323 324 324 324 324 324 325 325 325
302 302 302 303 303 305 307 307 307 308 310 310 310 315 313 314 315 314 315 316 314 315 316 317 318 319 319 320 321 321 321 322 321 320 319 316 315 317 320 321 321 320 320 320 320 321 321 321 323 324 324 324 324 325
302 302 303 303 304 304 307 308 309 311 311 310 311 316 315 314 314 314 315 316 316 316 317 318 319 318 320 320 322 321 321 321 320 320 318 316 317 320 321 320 320 320 320 320 319 319 319 319 320 319 320 322 323 323
301 305 305 303 304 304 306 309 312 313 313 314 313 314 313 315 315 315 316 316 317 318 319 319 319 318 320 321 321 321 321 321 319 319 319 319 321 321 320 320 320 320 319 319 319 319 319 319 319 320 319 319 319 319
301 307 303 304 304 304 308 312 313 312 312 311 311 311 313 314 315 315 315 316 316 317 319 319 320 321 319 320 319 318 322 316 316 319 320 321 321 321 321 321 320 320 320 319 318 319 320 319 319 318 319 319 319 319
303 303 302 305 304 307 312 311 312 310 311 311 312 312 312 314 315 315 315 316 316 317 317 319 318 319 319 318 319 320 318 320 320 320 320 320 320 320 320 320 320 320 320 320 320 318 318 319 318 317 317 318 319 318
303 303 305 306 304 310 311 311 312 311 311 311 311 312 314 314 314 314 315 315 315 316 317 317 317 319 319 318 319 319 319 320 320 319 319 320 320 320 320 320 320 320 319 317 317 317 318 318 317 316 316 316 316 316
307 307 307 305 307 311 311 311 311 310 311 311 312 313 315 315 315 316 316 316 316 316 316 316 317 317 317 318 318 318 318 319 320 319 319 319 319 317 317 316 316 316 316 315 314 314 314 314 314 314 314 315 315 315
311 309 307 308 310 310 310 310 312 310 311 312 313 314 315 315 315 315 315 315 316 316 316 317 318 318 319 319 319 319 319 318 318 318 318 318 318 317 316 315 315 314 314 313 313 313 312 312 311 311 312 312 312 312
310 308 310 310 311 311 312 312 312 312 313 313 315 314 314 315 315 314 314 315 314 314 313 315 314 313 313 314 314 313 314 315 315 315 316 317 318 316 315 314 313 313 312 311 310 310 309 309 308 307 307 308 308 309
310 310 312 313 313 312 313 314 314 313 315 315 315 316 316 317 317 315 315 315 314 315 315 315 314 313 312 312 312 311 310 311 312 312 312 312 312 312 311 311 310 309 309 308 308 307 307 306 306 306 307 306 306 307
310 312 314 315 316 316 316 316 316 316 315 316 317 318 317 316 316 314 316 316 315 313 313 312 312 312 312 311 310 309 308 309 310 311 310 309 310 310 311 310 309 308 307 306 306 306 306 306 305 306 306 306 306 305
313 313 315 316 317 318 318 319 318 318 318 318 318 319 318 318 317 316 316 312 311 311 311 311 311 311 310 309 308 307 306 306 307 308 307 307 307 307 307 307 307 307 306 305 304 303 304 304 305 305 305 305 304 304
317 317 317 318 319 319 319 320 320 320 319 319 318 318 318 319 318 315 312 309 309 309 309 309 309 309 308 307 306 305 304 303 304 305 305 305 305 305 304 304 304 304 303 302 302 303 303 303 303 304 304 304 303 303
320 320 319 316 317 318 319 318 318 319 319 319 319 317 318 317 313 308 307 306 307 307 307 306 306 306 306 305 304 303 302 301 302 302 302 303 303 302 302 301 301 300 300 301 302 302 302 302 302 302 302 302 302 301
320 321 321 319 319 318 319 318 318 318 318 318 318 317 316 314 310 306 306 306 307 307 307 307 305 304 304 302 301 301 300 299 299 299 300 301 300 299 298 298 298 297 298 298 298 299 299 299 298 298 298 298 298 298
321 321 320 320 320 319 319 318 317 316 315 316 316 315 312 309 309 308 308 307 306 306 305 304 303 302 301 300 300 299 298 297 297 297 297 297 297 296 296 295 296 296 296 296 296 296 295 295 295 295 296 297 297 296
321 321 321 320 320 319 317 317 316 314 313 312 311 309 309 308 307 308 308 307 306 306 305 304 302 300 299 298 298 297 297 296 295 294 293 293 294 293 293 294 294 294 294 294 294 294 294 294 294 294 294 294 294 293
319 319 320 320 320 317 316 316 315 313 313 312 311 311 311 310 310 310 307 306 305 304 303 302 301 299 297 297 296 296 295 295 294 292 290 291 291 291 292 292 292 292 292 293 293 293 293 292 292 292 292 292 292 292
319 319 319 320 319 317 316 317 315 316 314 313 313 313 313 313 312 310 306 304 303 302 301 300 299 298 297 296 295 295 294 294 293 291 289 289 290 290 291 291 291 292 292 292 292 292 292 291 291 291 291 291 291 291
317 316 316 316 317 318 319 319 318 316 315 315 314 313 312 311 310 308 306 304 303 301 300 299 298 298 297 296 295 294 294 293 292 291 290 289 289 290 290 291 291 291 291 291 291 291 291 291 291 290 290 290 290 291

GFSWCAN_850_thetae_030.txt.gz
Theta_e
301 302 302 301 301 301 302 301 301 302 302 302 302 302 302 302 302 302 304 304 304 302 303 304 305 306 306 307 308 310 310 314 315 317 319 319 322 324 324 325 329 330 331 330 333 336 335 335 338 338 346 345 345 344
302 302 301 301 301 301 301 301 302 301 301 302 302 302 302 302 302 302 303 304 303 305 304 304 305 306 307 307 307 308 310 310 313 317 320 321 323 327 329 328 326 329 328 331 334 335 342 336 343 342 341 341 343 342
301 301 301 301 301 301 301 302 301 301 301 301 302 302 302 302 302 302 303 303 303 303 304 305 306 307 307 308 306 308 308 309 310 313 314 320 324 325 331 333 334 332 330 334 333 333 340 338 336 339 340 341 342 342
301 301 301 301 301 301 301 301 301 301 301 301 301 301 301 302 302 302 303 303 303 304 305 305 307 307 308 309 309 307 306 307 313 312 313 319 322 322 327 327 328 330 329 333 337 344 339 338 337 338 339 342 343 346
301 301 301 301 301 300 300 300 301 301 301 301 300 301 301 303 302 302 304 303 303 303 306 305 305 308 308 310 309 309 308 308 312 313 313 319 320 321 325 325 329 326 327 332 342 330 332 338 336 338 338 339 340 342
300 301 301 301 301 301 301 301 301 302 303 301 300 300 300 301 301 303 304 305 304 304 304 307 307 308 311 311 310 309 308 308 309 312 313 315 318 319 325 327 323 322 322 327 328 329 328 333 330 331 330 332 334 335
301 301 301 301 301 301 301 302 303 303 303 303 302 301 300 300 301 303 305 305 304 303 303 305 308 311 313 314 310 311 310 310 311 314 314 316 319 320 325 326 321 321 325 328 323 326 326 324 325 325 324 325 325 326
302 303 303 303 303 303 303 303 303 303 304 305 303 303 304 303 303 304 305 306 305 303 302 305 308 309 314 315 313 313 313 312 313 314 316 318 319 321 323 321 322 322 323 328 328 324 322 322 323 323 324 323 324 324
303 303 302 303 304 304 304 305 305 305 305 306 306 307 306 306 306 307 306 306 304 303 304 303 308 311 313 314 315 314 315 317 316 317 318 318 320 322 321 322 319 319 320 321 322 322 323 323 324 324 322 321 324 325
302 302 303 303 303 303 304 306 306 306 306 308 309 310 310 310 310 308 306 304 302 301 300 301 302 310 313 315 316 315 316 319 318 317 315 315 318 317 320 318 317 317 318 320 322 323 324 322 321 323 322 324 322 322
302 302 302 303 304 304 305 307 307 307 310 310 310 311 310 309 308 309 311 308 306 306 304 305 310 316 313 318 318 317 319 319 317 319 317 314 315 316 318 318 317 317 317 317 317 318 321 323 324 322 325 325 323 320
302 302 302 302 303 304 305 307 308 308 309 307 308 308 310 312 312 312 311 313 314 316 315 316 316 317 314 314 317 318 318 318 320 319 317 316 314 317 319 319 318 318 319 320 320 320 321 319 318 317 321 323 322 325
301 301 302 303 303 304 304 307 309 309 310 311 312 313 312 313 317 311 313 314 316 316 316 317 319 315 315 315 318 320 320 323 320 318 314 314 315 316 319 322 322 321 323 323 324 324 324 326 325 325 325 325 325 326
301 301 303 304 303 304 305 308 311 312 312 312 313 315 317 317 315 312 314 315 317 317 318 319 320 319 318 321 321 323 322 320 319 318 313 313 315 318 320 321 321 322 323 322 321 321 323 323 324 324 324 324 324 325
301 301 306 306 303 304 306 310 313 314 314 315 315 317 316 315 316 317 316 316 318 316 317 321 320 319 321 323 325 323 321 318 316 314 314 314 317 320 320 320 320 320 320 319 320 320 320 320 320 320 321 322 323 323
301 303 309 304 304 305 311 313 315 316 316 315 314 315 315 316 316 317 318 316 318 319 319 319 320 321 322 321 320 320 321 320 320 320 318 319 320 320 321 321 320 319 319 320 319 320 319 320 320 320 320 319 319 320
302 307 304 304 304 308 311 314 314 312 312 313 313 314 315 315 316 316 316 317 317 319 321 320 321 321 320 319 319 318 318 318 318 319 319 319 319 320 320 321 321 321 320 320 320 319 320 319 319 319 320 320 320 320
307 307 306 306 305 311 313 313 314 312 312 313 314 315 316 316 317 318 317 317 318 319 318 319 318 319 320 321 321 319 319 319 318 319 320 321 319 320 319 319 320 320 319 319 319 319 319 317 318 317 318 318 320 318
308 307 307 306 311 313 313 312 314 312 313 313 315 316 316 317 317 317 318 317 316 317 317 317 319 319 320 319 320 320 320 319 319 319 320 320 320 320 320 320 318 318 316 316 316 317 316 315 315 315 316 316 317 317
309 308 306 310 311 314 312 313 312 312 313 315 316 316 316 317 317 316 317 317 317 317 318 319 320 319 319 319 319 319 319 318 318 319 319 317 318 318 317 317 316 316 316 315 314 314 315 314 313 313 313 313 314 314
314 311 310 313 313 313 313 313 313 313 315 316 316 317 316 316 316 315 314 315 315 316 317 316 315 315 314 313 313 314 316 316 316 317 317 317 315 316 316 316 315 314 314 313 313 312 311 311 310 309 309 310 310 310
313 311 314 315 315 314 315 314 314 315 315 317 317 317 317 317 316 315 315 316 317 317 316 315 314 314 314 311 310 310 310 314 313 313 313 315 314 313 313 312 312 312 312 311 310 309 309 308 308 308 308 308 308 308
312 314 317 317 317 316 317 316 316 316 318 317 318 318 318 317 317 317 317 315 315 315 314 314 314 313 312 311 309 308 308 310 311 312 311 311 311 312 312 311 311 310 309 308 308 307 307 307 307 307 308 308 308 307
313 315 317 318 319 318 318 318 318 317 317 318 319 319 318 317 316 315 314 314 312 312 312 311 311 311 311 310 309 308 306 307 308 309 308 308 308 309 309 309 309 308 308 307 307 306 305 305 306 307 307 307 307 306
316 317 319 319 320 320 319 319 319 319 319 319 319 321 319 319 318 316 315 311 311 312 311 311 311 310 310 309 308 306 305 305 305 306 306 306 307 307 306 306 306 304 304 304 304 304 305 305 305 305 306 305 305 305
317 320 318 319 319 319 319 320 320 320 320 319 317 317 319 318 316 314 311 309 309 309 309 309 310 310 309 307 305 305 303 302 302 303 303 304 304 304 303 302 302 301 300 302 303 303 303 304 303 303 303 303 303 303
319 321 321 320 320 320 320 319 319 319 320 320 320 319 318 317 313 309 307 308 308 309 309 309 307 306 305 304 303 303 302 300 300 300 301 303 301 300 299 299 299 297 298 299 299 299 299 300 299 298 299 299 300 300
321 322 322 320 320 319 320 318 318 318 318 318 318 316 315 313 311 309 309 309 309 308 307 307 305 304 303 302 302 301 300 299 298 298 298 299 298 297 296 297 297 296 297 297 296 297 297 296 296 296 296 297 298 298
321 321 319 321 320 318 318 318 317 316 316 317 317 316 312 311 310 310 309 309 309 309 307 306 305 303 301 300 300 299 298 298 296 296 295 295 295 295 295 295 295 295 295 295 295 295 294 294 295 295 295 295 295 295
321 318 320 319 318 318 317 316 316 315 314 314 313 312 311 311 310 310 310 308 307 306 305 304 303 301 299 299 299 298 297 297 295 294 292 293 293 294 294 294 294 294 294 294 295 295 294 294 294 294 293 293 293 293
319 318 319 318 318 317 317 317 316 315 314 313 313 312 312 312 311 310 307 306 305 304 303 302 301 300 299 298 298 297 296 297 294 293 291 292 292 292 293 293 293 294 294 294 294 294 294 293 293 293 292 292 292 292
319 318 319 320 319 318 318 319 319 317 315 315 314 313 313 312 312 310 307 306 304 303 302 301 301 300 299 298 297 296 295 296 294 292 292 291 291 292 292 293 292 293 293 293 292 293 292 292 292 292 292 292 292 291
318 318 317 317 319 320 321 321 320 318 316 316 315 314 312 312 310 307 305 305 303 302 301 300 300 300 299 298 296 296 296 295 294 293 292 292 291 291 291 292 292 292 292 292 292 292 292 292 292 292 292 292 292 291

GFSWCAN_850_thetae_036.txt.gz
Theta_e
300 300 300 301 301 301 301 301 301 301 301 301 301 301 301 301 302 302 302 302 303 304 303 304 304 303 303 304 305 305 306 308 308 313 315 315 312 312 317 320 325 327 329 330 326 327 328 330 333 326 327 342 340 339
301 301 301 301 301 301 301 301 301 301 301 302 302 301 300 301 302 302 302 302 303 303 304 304 304 303 304 305 305 305 306 307 307 307 310 310 313 317 316 324 323 326 327 330 330 334 328 330 328 328 339 340 342 340
302 302 303 303 303 303 303 303 303 303 303 303 303 303 302 300 301 302 303 303 302 304 303 303 303 304 304 305 305 304 305 305 307 308 308 310 310 310 318 320 324 326 325 330 329 330 328 330 326 330 341 349 350 343
303 303 303 303 303 303 303 303 303 303 303 304 304 303 303 303 301 300 300 300 301 303 304 304 304 304 304 305 304 305 306 306 306 308 306 308 312 311 316 319 320 326 326 326 328 327 328 329 325 328 345 348 349 350
303 303 303 302 302 302 303 303 303 304 304 305 305 305 304 304 303 302 300 301 303 303 304 304 304 306 305 307 309 306 306 306 306 307 307 309 311 313 317 319 320 324 324 327 329 324 328 326 325 326 331 335 342 348
303 302 302 302 302 302 302 303 303 303 305 306 306 306 305 305 304 303 302 304 305 305 304 305 304 305 308 310 309 309 307 309 307 308 310 310 310 311 317 321 320 320 321 321 327 326 324 325 325 325 326 327 330 336
303 302 302 302 301 301 302 303 304 304 305 307 307 307 305 305 305 304 304 305 304 304 303 305 302 304 308 313 309 309 310 310 309 309 312 312 313 315 319 324 320 322 321 322 325 326 325 325 325 325 325 325 325 326
303 302 302 301 301 301 302 304 304 305 309 308 309 308 307 307 306 306 308 306 306 303 303 304 304 304 311 312 312 311 310 310 310 311 313 315 313 316 321 318 320 320 321 323 326 326 324 325 325 325 326 326 325 325
302 302 301 301 301 302 303 304 304 306 311 309 310 311 310 308 307 307 307 306 306 305 303 303 304 308 309 313 313 313 312 313 312 314 315 314 316 320 319 319 319 320 321 324 324 324 324 325 325 324 324 325 324 324
302 302 301 301 301 302 304 305 305 309 312 310 311 311 311 311 310 309 306 304 301 301 301 301 303 306 308 312 312 312 313 315 316 315 310 312 314 316 318 317 319 322 323 323 324 324 323 323 323 323 325 327 327 327
301 301 301 301 301 303 304 305 306 311 313 311 310 310 310 310 309 309 308 305 302 302 300 301 303 306 310 313 313 313 315 313 314 316 313 312 315 315 316 317 318 320 323 323 323 324 325 326 325 325 324 323 322 322
305 302 301 301 302 304 304 305 308 312 313 312 312 311 311 311 309 310 310 309 308 310 306 307 310 308 311 313 314 314 313 314 317 314 312 313 313 314 317 317 318 318 319 320 321 321 321 322 322 323 326 322 319 323
308 305 302 302 303 304 305 308 310 311 314 314 314 313 314 311 314 307 311 312 313 315 315 312 315 314 315 313 313 314 319 316 314 311 310 311 312 317 317 319 320 321 322 322 322 321 321 323 325 325 326 326 326 326
309 307 304 303 305 305 306 311 312 314 315 316 315 313 313 316 315 313 317 317 318 317 317 317 318 317 315 315 319 319 316 315 315 314 319 320 319 321 321 321 322 322 321 320 320 322 323 323 324 324 323 324 325 326
310 308 306 305 305 305 312 313 314 315 317 316 314 316 315 316 317 318 318 317 317 317 320 319 319 318 318 319 319 318 316 314 315 318 319 319 320 320 320 319 320 320 319 319 320 320 320 319 319 319 319 320 323 324
309 307 306 306 307 311 313 314 314 315 317 315 316 315 316 317 317 316 316 317 317 317 318 317 317 318 318 317 317 316 315 316 318 318 318 319 319 318 319 319 318 319 318 317 320 320 319 320 320 319 318 319 319 321
308 307 306 309 311 312 312 313 315 315 315 316 316 317 317 317 316 315 314 315 317 317 317 317 319 318 316 317 317 318 319 319 318 318 319 319 318 318 318 318 318 317 317 315 315 314 312 315 319 318 317 318 316 317
308 306 310 312 312 312 312 312 313 315 316 316 316 316 316 316 315 315 314 313 315 316 316 317 316 316 317 317 317 316 316 317 317 317 318 318 318 317 316 316 316 317 315 312 313 313 312 311 310 310 310 311 316 316
308 309 312 312 313 313 314 313 313 316 316 316 316 316 315 315 315 314 315 314 312 311 312 312 313 313 313 313 313 316 315 314 315 315 316 316 316 316 314 312 311 311 310 309 309 309 309 309 309 308 309 310 309 310
312 312 314 314 314 314 314 314 314 315 316 317 316 316 315 314 314 313 313 313 314 313 311 310 312 311 307 306 307 311 312 309 311 313 314 312 314 314 314 311 310 309 308 307 307 307 308 308 308 308 308 308 308 308
314 315 316 316 316 315 315 315 315 315 316 316 316 317 316 314 313 313 312 312 313 313 313 313 309 306 306 306 306 308 307 306 306 308 309 309 310 311 308 307 307 306 306 305 306 306 306 306 307 308 307 307 307 307
315 318 318 318 318 316 316 317 317 316 317 317 317 317 317 316 314 313 312 312 311 312 311 309 310 308 306 305 305 305 305 304 305 307 307 307 307 306 305 305 304 304 304 305 305 305 305 305 306 306 306 306 306 306
314 315 318 319 318 318 318 318 318 317 317 314 316 317 317 315 314 312 312 311 311 310 309 308 307 307 304 303 303 303 303 303 303 305 305 304 302 302 302 302 302 302 302 302 303 302 302 303 304 305 305 304 303 303
314 316 318 318 320 319 319 318 319 319 318 317 316 316 314 316 315 313 310 310 310 309 309 307 307 305 304 302 301 300 301 301 301 302 301 300 300 299 299 299 299 299 299 300 300 299 299 300 300 300 301 301 300 301
317 318 319 320 319 321 319 318 318 317 317 317 316 314 314 316 313 311 311 310 309 309 308 306 305 303 302 301 300 300 299 299 298 298 298 298 297 297 297 297 297 297 297 297 297 298 297 298 298 297 297 298 298 298
310 321 321 321 320 320 320 318 317 317 317 318 317 317 316 315 312 310 309 309 309 309 309 307 303 302 301 300 299 298 298 298 297 296 296 296 296 296 295 295 295 295 295 295 296 296 296 295 296 296 296 296 296 296
314 317 317 319 320 320 319 317 316 316 317 319 317 317 316 313 312 310 309 309 310 309 308 306 301 301 300 299 298 298 298 298 296 295 295 295 295 294 294 294 295 295 295 295 295 295 294 294 294 294 294 294 294 294
316 315 317 319 320 320 317 316 315 314 314 315 315 313 313 311 309 310 310 309 309 309 305 303 300 300 299 299 298 298 297 297 296 295 294 294 294 294 294 294 294 294 294 294 294 294 294 293 293 293 293 293 293 293
318 318 318 321 317 317 317 316 315 314 313 315 313 311 312 311 310 310 309 307 306 305 303 302 301 300 299 299 298 297 297 296 296 295 293 293 293 293 293 293 293 294 294 293 294 293 293 293 293 293 292 292 292 292
320 318 320 322 318 317 316 316 315 314 314 311 312 312 311 311 310 309 309 305 304 303 302 301 300 300 299 298 297 297 296 296 295 294 293 292 292 293 293 293 293 293 293 293 293 293 292 292 292 292 292 292 292 292
320 320 320 319 318 317 317 316 315 314 313 312 312 311 312 312 309 309 306 304 303 302 301 301 300 300 299 298 297 296 296 295 294 294 294 293 292 292 292 292 292 292 292 292 292 292 292 292 292 292 292 292 292 292
320 320 320 320 319 318 317 317 316 315 314 314 313 313 313 312 311 305 304 303 303 302 300 300 300 299 299 298 297 296 296 296 294 294 294 293 293 293 292 292 292 292 292 292 292 292 292 292 292 292 292 293 293 292
319 319 319 320 320 319 320 320 319 319 317 316 315 314 315 312 309 305 303 303 303 302 301 300 299 299 298 298 296 295 296 295 295 294 294 293 293 293 293 292 292 292 292 292 292 292 292 292 292 292 293 293 292 293